Regional Weather Roundup
Issued by NWS

Home | Current Version | Previous Version | Text Only | Print | Product List | Glossary On
Versions: 1 2 3 4 5 6 7 8 9 10 11 12 13 14 15 16 17 18 19 20 21 22 23 24 25 26 27 28 29 30 31 32 33 34 35 36 37 38 39 40 41 42 43 44 45 46 47 48 49 50
000
ASUS44 KFWD 220201
RWRTX
NORTH TEXAS HOURLY WEATHER ROUNDUP
NATIONAL WEATHER SERVICE FORT WORTH TX
900 PM CDT SUN SEP 21 2014

NOTE: "FAIR" INDICATES FEW OR NO CLOUDS BELOW 12,000 FEET WITH NO
SIGNIFICANT WEATHER AND/OR OBSTRUCTIONS TO VISIBILITY.

TXZ118-119-220300-
DALLAS/FORT WORTH METROPLEX

CITY           SKY/WX    TMP DP  RH WIND       PRES   REMARKS
DFW AIRPORT    MOCLDY    85  64  49 NE5       30.05R
DALLAS LOVE    PTCLDY    84  64  50 E6        30.04R
FTW MEACHAM    CLEAR     88  60  38 NE3       30.05R
DAL-EXECUTIVE  PTCLDY    81  64  56 CALM      30.04R
FTW-ALLIANCE   PTCLDY    83  62  49 NE5       30.05R
FTW-NAS-JRB    PTCLDY    87  68  52 NE3       30.09R HX  90
FTW-SPINKS     CLEAR     77  63  62 CALM      30.07R
ARLINGTON      CLEAR     77  64  64 NW3       30.05R
GRAND PRAIRIE  CLEAR     86  58  39 CALM      30.06R
LANCASTER      PTCLDY    81  62  51 CALM      30.05R
$$

TXZ091>094-102>105-117-120-121-131>134-220300-
NORTH CENTRAL TEXAS

CITY           SKY/WX    TMP DP  RH WIND       PRES   REMARKS
SHRMAN/DENISON CLOUDY    77  69  77 NE16      30.11R
GAINESVILLE    MOCLDY    77  66  68 NE9       30.11R
BRIDGEPORT     PTCLDY    75  62  63 CALM      30.09R
DECATUR        PTCLDY    80  62  54 NE3       30.09R
DENTON         PTCLDY    83  63  50 NE3       30.06R
MCKINNEY       MOCLDY    84  64  50 NE3       30.06R
GREENVILLE     CLOUDY    79  64  61 CALM      30.06R
ROCKWALL       MOCLDY    82  66  59 E3        30.05R
TERRELL        PTCLDY    83  62  49 CALM      30.05R
WAXAHACHIE     CLEAR     78  58  49 CALM      30.06R
CLEBURNE       PTCLDY    84  63  48 CALM      30.07R
$$

TXZ083>090-098>101-113>116-127>130-139>142-154-155-220300-
WESTERN NORTH TEXAS

CITY           SKY/WX    TMP DP  RH WIND       PRES   REMARKS
WICHITA FALLS  MOCLDY    77  65  66 NE10      30.11R
WF-KICKAPOO    MOCLDY    77  62  59 NE9       30.12R
VERNON         CLOUDY    74  69  82 NE13      30.15R
ABILENE        CLOUDY    80  65  59 S5        30.12R
ABILENE-DYESS  CLOUDY    77  61  58 S2        30.11R
MINERAL WELLS  MOCLDY    83  57  41 E8        30.06R
STEPHENVILLE   MOCLDY    80  57  44 SE5       30.11R
COMANCHE       MOCLDY    79  63  57 S3        30.09R
COLEMAN        PTCLDY    78  67  67 CALM      30.11R
BRADY          MOCLDY    79  64  61 E5        30.10R
$$

TXZ143>147-156>162-174-175-220300-
CENTRAL TEXAS

CITY           SKY/WX    TMP DP  RH WIND       PRES   REMARKS
WACO           PTCLDY    79  64  60 SE6       30.04R
WACO-MCGREGOR  PTCLDY    81  59  47 SE5       30.06R
CORSICANA      CLEAR     80  64  58 SE9       30.06R
MEXIA          CLEAR     79  65  63 CALM      30.04R
HEARNE         CLEAR     76  71  84 CALM      30.04R
CAMERON        PTCLDY    79  68  68 CALM      30.04R
TEMPLE         MOCLDY    79  63  57 SE6       30.05R
KILLEEN        PTCLDY    81  64  57 SE8       30.07R
KILLEEN-SKYLRK MOCLDY    81  63  54 SE6       30.06R
FORT HOOD      MOCLDY    82  64  54 CALM      30.07R
HAMILTON       MOCLDY    79  60  52 SE5       30.09R
LAMPASAS       MOCLDY    78  68  70 CALM      30.07R
$$

TXZ095>097-106>112-122>126-135>138-148>153-164>167-220300-
EAST TEXAS

CITY           SKY/WX    TMP DP  RH WIND       PRES   REMARKS
PARIS          PTCLDY    79  66  65 N10       30.08R
SULPHUR SPRNGS CLOUDY    83  66  56 NE5       30.07R
MOUNT PLEASANT PTCLDY    79  69  72 CALM      30.06R
MINEOLA        MOCLDY    79  70  73 CALM      30.05R
TYLER          CLEAR     81  69  67 CALM      30.04R
LONGVIEW       CLEAR     82  66  58 N5        30.03R
MARSHALL       CLEAR     78  69  72 CALM      30.05R
ATHENS         CLEAR     75  64  69 CALM      30.04R
PALESTINE      CLEAR     77  70  77 CALM      30.05R
JACKSONVILLE   PTCLDY    82  66  57 CALM      30.07R
HENDERSON      CLEAR     76  69  79 CALM      30.05R
NACOGDOCHES    CLEAR     75  70  83 CALM      30.03R
LUFKIN         CLEAR     79  72  79 CALM      30.03R
$$

SUPPLEMENTAL OBSERVATIONS (CENTRAL)

CITY           SKY/WX    TMP DP  RH WIND       PRES   REMARKS
$$

SUPPLEMENTAL OBSERVATIONS (WEST)

CITY           SKY/WX    TMP DP  RH WIND       PRES   REMARKS
$$

SUPPLEMENTAL OBSERVATIONS (EAST)

CITY           SKY/WX    TMP DP  RH WIND       PRES   REMARKS
$$

SUPPLEMENTAL OBSERVATIONS ARE A COLLECTION OF AUTOMATED INSTRUMENTS
THAT ARE MAINTAINED BY A VARIETY OF FEDERAL AND STATE AGENCIES.
CERTAIN ELEMENTS...SUCH AS HUMIDITY VALUES AND SUSTAINED WIND
SPEEDS...MAY BE APPROXIMATED.



USA.gov is the U.S. government's official web portal to all federal, state and local government web resources and services.